This demonstration page uses our WeatherBlox Daily Observations layout. Learn more.

Left ArrowRight Arrow

Hourly Observations for October 16, 2020

Temp ( °F °C ) Dew Point ( °F °C ) Humidity (%) Winds ( mph kmh ) Pressure ( in mb ) Visibility ( mi km ) Precip ( " mm )
12:53 am 00:53 Clear 54 12.2 31 -0.6 42 42 ENE 7 11 30.16 1021 10 16 0.00 0.00
1:53 am 01:53 Clear 57 13.9 30 -1.1 36 36 ENE 12 19 30.18 1022 10 16 0.00 0.00
2:53 am 02:53 Clear 56 13.3 30 -1.1 37 37 E 12 19 30.18 1022 10 16 0.00 0.00
3:53 am 03:53 Clear 54 12.2 31 -0.6 42 42 E 10 17 30.19 1022 10 16 0.00 0.00
4:53 am 04:53 Clear 54 12.2 32 0 43 43 E 12 19 30.20 1023 10 16 0.00 0.00
5:53 am 05:53 Clear 53 11.7 32 0 45 45 E 9 15 30.23 1024 10 16 0.00 0.00
6:53 am 06:53 Clear 50 10 31 -0.6 48 48 E 5 7 30.27 1025 10 16 0.00 0.00
7:53 am 07:53 Clear 48 8.9 31 -0.6 52 52 ENE 3 6 30.30 1026 10 16 0.00 0.00
8:53 am 08:53 Sunny 51 10.6 32 0 48 48 ENE 6 9 30.32 1027 10 16 0.00 0.00
9:53 am 09:53 Sunny 55 12.8 33 0.6 44 44 ESE 10 17 30.35 1028 10 16 0.00 0.00
10:53 am 10:53 Sunny 59 15 27 -2.8 29 29 ESE 15 24 30.35 1028 10 16 0.00 0.00
11:53 am 11:53 Sunny 62 16.7 29 -1.7 29 29 SSE 14 22 30.33 1027 10 16 0.00 0.00
12:53 pm 12:53 Sunny 65 18.3 27 -2.8 24 24 SE 8 13 30.29 1026 10 16 0.00 0.00
1:53 pm 13:53 Sunny 67 19.4 27 -2.8 22 22 SE 10 17 30.24 1024 10 16 0.00 0.00
2:53 pm 14:53 Sunny 69 20.6 28 -2.2 22 22 ESE 9 15 30.19 1022 10 16 0.00 0.00
3:53 pm 15:53 Sunny 71 21.7 29 -1.7 21 21 SE 10 17 30.15 1021 10 16 0.00 0.00
4:53 pm 16:53 Sunny 72 22.2 30 -1.1 21 21 ESE 10 17 30.12 1020 10 16 0.00 0.00
5:53 pm 17:53 Sunny 72 22.2 32 0 23 23 S 7 11 30.09 1019 10 16 0.00 0.00
6:53 pm 18:53 Sunny 70 21.1 34 1.1 27 27 SSE 8 13 30.09 1019 10 16 0.00 0.00
7:53 pm 19:53 Clear 64 17.8 33 0.6 32 32 SE 6 9 30.10 1019 10 16 0.00 0.00
8:53 pm 20:53 Clear 62 16.7 33 0.6 34 34 SE 7 11 30.09 1019 10 16 0.00 0.00
9:53 pm 21:53 Clear 62 16.7 34 1.1 35 35 SE 8 13 30.08 1019 10 16 0.00 0.00
10:53 pm 22:53 Clear 60 15.6 34 1.1 38 38 SE 9 15 30.07 1018 10 16 0.00 0.00
11:53 pm 23:53 Clear 58 14.4 34 1.1 41 41 SE 9 15 30.06 1018 10 16 0.00 0.00

Powered by AerisWeather